Weather History for Melbourne, FL

Change the Weather History Date:

Friday, November 30, 2012

  Actual Average Record
Temperature  
Mean Temperature 68 °F 66 °F  
Max Temperature 77 °F 76 °F 88 °F (1978)
Min Temperature 58 °F 56 °F 36 °F (1966)
Degree Days  
Heating Degree Days 0 2  
Month to date heating degree days 54 38  
Since 1 July heating degree days 73 42  
Cooling Degree Days 3 3  
Month to date cooling degree days 63 158  
Year to date cooling degree days 3394 3195  
Growing Degree Days 18 (Base 50)    
Moisture  
Dew Point 57 °F    
Average Humidity 68    
Maximum Humidity 90    
Minimum Humidity 46    
Precipitation  
Precipitation T in 0.08 in 1.15 in (1976)
Month to date precipitation 0.66 2.88  
Year to date precipitation 37.57 49.43  
Sea Level Pressure  
Sea Level Pressure 30.22 in    
Wind  
Wind Speed 8 mph (ENE)    
Max Wind Speed 15 mph    
Max Gust Speed 18 mph    
Visibility 10 miles    
Events Rain    
T = Trace of Precipitation, MM = Missing Value Source: NWS Daily Summary

Daily Weather History Graph

Daily Weather History Graph

Search for Another Location

Airport:

Trip Planner

Search our weather history database for the weather conditions in past years. The results will help you decide how hot, cold, wet, or windy it might be!

Date:

Astronomy

Nov. 30, 2012 Rise Set
Actual Time 6:56 AM EST 5:26 PM EST
Civil Twilight 6:31 AM EST 5:51 PM EST
Nautical Twilight 6:02 AM EST 6:20 PM EST
Astronomical Twilight 5:33 AM EST 6:49 PM EST
Moon 7:18 PM EST (11/30) 8:27 AM EST (11/30)
Length of Visible Light 11h 20m
Length of Day
10h 29m
Waning Gibbous, 96% of the Moon is Illuminated
Nov 30
Waning Gibbous
Dec 6
Last Quarter
Dec 13
New
Dec 20
First Quarter
Dec 28
Full

Hourly Weather History & Observations

Time (EST) Temp. Dew Point Humidity Pressure Visibility Wind Dir Wind Speed Gust Speed Precip Events Conditions
12:53 AM 68.0 °F 57.9 °F 70% 30.23 in 10.0 mi ENE 11.5 mph - N/A   Clear
1:53 AM 69.1 °F 57.9 °F 68% 30.22 in 10.0 mi East 12.7 mph - N/A   Clear
2:53 AM 68.0 °F 55.9 °F 65% 30.22 in 10.0 mi East 9.2 mph - N/A   Clear
3:53 AM 68.0 °F 57.9 °F 70% 30.22 in 10.0 mi ENE 11.5 mph - N/A   Scattered Clouds
4:53 AM 68.0 °F 57.9 °F 70% 30.23 in 10.0 mi East 11.5 mph - N/A   Clear
5:53 AM 68.0 °F 57.0 °F 68% 30.23 in 10.0 mi ENE 9.2 mph - N/A   Clear
6:53 AM 66.9 °F 57.0 °F 70% 30.24 in 10.0 mi ENE 10.4 mph - N/A   Clear
7:53 AM 70.0 °F 59.0 °F 68% 30.25 in 10.0 mi ENE 6.9 mph - N/A   Partly Cloudy
8:53 AM 73.0 °F 57.0 °F 57% 30.27 in 10.0 mi East 9.2 mph - N/A   Clear
9:53 AM 75.0 °F 55.9 °F 51% 30.27 in 10.0 mi East 10.4 mph - N/A   Partly Cloudy
10:53 AM 73.9 °F 57.0 °F 55% 30.25 in 10.0 mi East 12.7 mph - N/A   Clear
11:53 AM 75.0 °F 57.0 °F 53% 30.25 in 10.0 mi East 11.5 mph - N/A   Scattered Clouds
12:53 PM 75.9 °F 55.9 °F 50% 30.22 in 10.0 mi ENE 11.5 mph - N/A   Clear
1:53 PM 75.9 °F 55.9 °F 50% 30.20 in 10.0 mi East 10.4 mph - N/A   Mostly Cloudy
2:53 PM 73.9 °F 55.0 °F 52% 30.19 in 10.0 mi ENE 11.5 mph - N/A   Clear
3:53 PM 73.9 °F 52.0 °F 46% 30.19 in 10.0 mi ENE 8.1 mph - N/A   Partly Cloudy
4:53 PM 71.1 °F 55.0 °F 57% 30.19 in 10.0 mi NE 6.9 mph - N/A   Clear
5:53 PM 66.9 °F 55.0 °F 66% 30.20 in 10.0 mi NNE 3.5 mph - N/A   Clear
6:53 PM 62.1 °F 54.0 °F 75% 30.20 in 10.0 mi North 4.6 mph - N/A   Clear
7:53 PM 60.1 °F 55.0 °F 83% 30.22 in 10.0 mi NW 4.6 mph - N/A   Clear
10:53 PM 64.9 °F 61.0 °F 87% 30.22 in 7.0 mi ENE 4.6 mph - 0.00 in Rain Light Rain
11:53 PM 68.0 °F 61.0 °F 78% 30.21 in 10.0 mi Calm Calm - 0.00 in   Overcast